Location: Buckland
(65.9785°N, 161.1281°W)
Time: 21:28:03
(UTC+00:00)

PRISM - Pass Details

Date: 20 January 2021
Orbit: 565 x 584 km, 98.2° (Epoch: 06 March)

Event Time Altitude Azimuth Distance (km) Brightness Sun altitude
Rises 16:14:47 0° 24° (NNE) 2,785 ? -22.3°
Reaches altitude 10° 16:17:16 10° 9° (N) 1,886 ? -22.1°
Enters shadow 16:18:46 17° 351° (N) 1,474 ? -21.9°
